Local Weather and METAR Reports

The data for these readings is taken from the NOAA Wesbite.  Please make sure you conduct your own weather check before flying.

METAR:

EGHI 271720Z 20006KT 9999 VCSH SCT028 07/05 Q0995


QNH (Hectopascals): 995


QNH (Inches Mercury): 29.38


TEMPERATURE (Degrees Celsius): 7°


DEW POINT TEMPERATURE (Degrees Celsius): 5°

Live Radar

Radar Data provided by FlightRadar24

Local NOTAMS

Whilst we will strive to keep local NOTAM information up to date, please make sure that you conduct your own review of local reports before flying.

Loading RSS Feed

© Hampshire Aeroplane Club 2017 – 2020